Regional Weather Roundup
Issued by NWS

Home | Current Version | Previous Version | Text Only | Print | Product List | Glossary On
Versions: 1 2 3 4 5 6 7 8 9 10 11 12 13 14 15 16 17 18 19 20 21 22 23 24 25 26 27 28 29 30 31 32 33 34 35 36 37 38 39 40 41 42 43 44 45 46 47 48 49 50
000
ASUS43 KMKX 280321
RWRWI

WISCONSIN REGIONAL WEATHER ROUNDUP
NATIONAL WEATHER SERVICE MILWAUKEE/SULLIVAN WI
1000 PM CDT SUN MAY 27 2018

NOTE: "FAIR" INDICATES FEW OR NO CLOUDS BELOW 12,000 FEET WITH NO
SIGNIFICANT WEATHER AND/OR OBSTRUCTIONS TO VISIBILITY.

WIZ001-002-006>008-014>016-023>028-280400-
NORTHWEST WISCONSIN

CITY           SKY/WX    TMP DP  RH WIND       PRES   REMARKS
SUPERIOR ARPT  FAIR      52  50  95 CALM      29.85S
ASHLAND        FAIR      66  58  75 CALM      29.86R
HAYWARD        FAIR      67  65  93 CALM      29.87R
SIREN          MOCLDY    74  60  60 CALM      29.84S
CUMBERLAND     FAIR      72  59  64 E6        29.85S
RICE LAKE      FAIR      75  61  60 E3        29.86S
CHETEK         FAIR      74  64  70 CALM      29.85S
LADYSMITH      FAIR      72  64  77 CALM      29.90R
EAU CLAIRE     FAIR      76  61  59 CALM      29.83S
MENOMONIE      FAIR      74  62  65 CALM      29.84R
NEW RICHMOND   FAIR      80  56  44 CALM      29.83R HX  80
OSCEOLA        FAIR      80  59  48 S8        29.83S HX  81
$$

WIZ003>005-009-010-017-018-280400-
NORTH CENTRAL WISCONSIN

CITY           SKY/WX    TMP DP  RH WIND       PRES   REMARKS
MANITOWISH WTR MOCLDY    65  65 100 CALM      29.92R
ARBOR VITAE    FAIR      70  63  78 CALM      29.92R
WOODRUFF       FAIR      70  63  78 CALM      29.92R
RHINELANDER    FAIR      67  58  72 CALM      29.92S
EAGLE RIVER    FAIR      67  56  69 CALM      29.92R
LAND O LAKES   FAIR      63  58  85 CALM      29.94R
PHILLIPS       FAIR      68  62  82 CALM      29.90R
TOMAHAWK       FAIR      65  59  81 CALM      29.92R HAZE
MEDFORD        FAIR      69  56  64 CALM      29.91R
MERRILL        FAIR      69  63  81 CALM      29.91R
$$

WIZ029-030-035-036-043>047-280400-
CENTRAL WISCONSIN

CITY           SKY/WX    TMP DP  RH WIND       PRES   REMARKS
WAUSAU         FAIR      73  61  65 CALM      29.89R
MOSINEE        CLEAR     75  61  60 CALM      29.91R
MARSHFIELD     FAIR      74  60  61 CALM      29.89R
STEVENS POINT  FAIR      69  61  77 CALM      29.90R
WAUPACA        FAIR      74  61  62 CALM      29.89R
WAUTOMA        FAIR      70  66  87 CALM      29.89R
WISC RAPIDS    FAIR      71  60  68 CALM      29.90R
CAMP DOUGLAS   LGT RAIN  68  64  86 CALM      29.89R
$$

WIZ011>013-019>022-031-037>040-048>050-280400-
NORTHEAST WISCONSIN

CITY           SKY/WX    TMP DP  RH WIND       PRES   REMARKS
ANTIGO         FAIR      67  56  67 CALM      29.93R
SHAWANO        FAIR      74  66  76 CALM      29.88R
OCONTO         FAIR      64  61  89 CALM      29.88R
STURGEON BAY   FAIR      69  61  75 S8        29.90R
GREEN BAY      FAIR      72  64  76 CALM      29.88R
MANITOWOC      NOT AVBL
APPLETON       PTCLDY    79  55  44 CALM      29.88R
CLINTONVILLE   FAIR      74  62  65 CALM      29.88R
OSHKOSH        FAIR      76  62  62 CALM      29.88R
$$

WIZ032>034-041-042-053>061-280400-
SOUTHWEST WISCONSIN

CITY           SKY/WX    TMP DP  RH WIND       PRES   REMARKS
LA CROSSE      FAIR      77  63  61 SE5       29.86R
SPARTA         FAIR      69  66  91 CALM      29.89R
VIROQUA        FAIR      80  58  46 CALM      29.92R HX  80
BOSCOBEL       FAIR      73  70  90 CALM      29.88R
PRAIRIE DU CHI FAIR      75  66  73 CALM      29.88R
PLATTEVILLE    FAIR      82  63  51 S3        29.91R HX  83
$$

WIZ056-057-062-063-064-067-068-280400-
SOUTH CENTRAL WISCONSIN

CITY           SKY/WX    TMP DP  RH WIND       PRES   REMARKS
REEDSBURG      FAIR      72  65  79 SW3       29.90R
BARABOO/DELLS  FAIR      73  63  71 CALM      29.90R
LONE ROCK      FAIR      73  66  78 CALM      29.88R
MINERAL POINT  FAIR      81  61  50 CALM      29.91R HX  81
MADISON        FAIR      75  67  76 CALM      29.89R
MIDDLETON      FAIR      74  65  73 CALM      29.90R
WATERTOWN      FAIR      73  69  90 CALM      29.89R
MONROE         FAIR      82  63  51 E6        29.90R HX  83
JANESVILLE     FAIR      79  63  57 CALM      29.88R HX  80
$$

WIZ051-052-058>065-066-070>072-280400-
SOUTHEAST WISCONSIN

CITY           SKY/WX    TMP DP  RH WIND       PRES   REMARKS
MILWAUKEE      FAIR      75  63  66 NE3       29.89R
WAUKESHA       FAIR      73  63  68 CALM      29.92R
MILWAUKEE/TIMM FAIR      73  61  64 NE3       29.91R
RACINE         FAIR      75  64  68 S7        29.90R
BURLINGTON     FAIR      73  65  77 CALM      29.89R
KENOSHA        FAIR      77  63  61 S7        29.88S
FOND DU LAC    FAIR      73  66  78 S7        29.89R
SHEBOYGAN      FAIR      69  64  84 CALM      29.90R
WEST BEND      FAIR      68  66  94 CALM      29.91R
JUNEAU         FAIR      74  68  83 E5        29.92R
$$

LSZ147-162-280400-
LAKE SUPERIOR

STATION/POSITION TIME  TEMP    WIND        PRES    WAVE
                       AIR SEA DIR/SP/G            HT/PER
                 (UTC) (F)     (DEG/KT/KT) (MB)    (FT/S)
W MID LAKE BUOY  0250   41 37   70/  4/  6 1011.8R   0
DEVILS ISLAND    0300   46      50/  8/  8 1011.7R
SAXON HARBOR     0240   65     200/  1/  2 1010.5R
$$

LMZ867-665-643>646-280400-
LAKE MICHIGAN

STATION/POSITION TIME  TEMP    WIND        PRES    WAVE
                       AIR SEA DIR/SP/G            HT/PER
                 (UTC) (F)     (DEG/KT/KT) (MB)    (FT/S)
N MID LAKE BUOY  0300   47 38  240/  4/  6 1012.2
NORTHPORT PIER   0240   55     140/  2/  2 1012.2R
KEWAUNEE LAKESHO 0254   55      90/  2/  2 1012.1R
SHEBOYGAN LAKESH 0300   54     180/  2/  3 1012.3R
PORT WASHINGTON  0230   60      30/  5/  7 1013.2R
ATWATER BUOY     0237   58 53   30/  4/  4 1013.0R   1
MILWAUKEE LAKESH 0300   37      40/  4/  4   N/A
S MID LAKE BUOY  0250   60 46  150/  8/  8 1012.0R   0
KENOSHA   LAKESH 0300   74                 1011.5
$$

TC  - TEMPERATURE IN CELSIUS
VSB - VISIBILITY IN STATUTE MILES
WCI - WIND CHILL INDEX
HX  - HEAT INDEX




USA.gov is the U.S. government's official web portal to all federal, state and local government web resources and services.